Regional Weather Roundup
Issued by NWS

Home | Current Version | Previous Version | Graphics & Text | Print | Product List | Glossary Off
Versions: 1 2 3 4 5 6 7 8 9 10 11 12 13 14 15 16 17 18 19 20 21 22 23 24 25 26 27 28 29 30 31 32 33 34 35 36 37 38 39 40 41 42 43 44 45 46 47 48 49 50

000
ASUS43 KTOP 030859
RWRKS

WEATHER ROUNDUP FOR KANSAS
NATIONAL WEATHER SERVICE GOODLAND KS
400 AM CDT TUE MAY 03 2016

NOTE:  "FAIR" INDICATES FEW OR NO CLOUDS BELOW 12,000 FEET WITH NO
SIGNIFICANT WEATHER AND/OR OBSTRUCTIONS TO VISIBILITY.

KSZ001>006-013>018-027>032-041>047-031000-
NORTHWEST KANSAS

CITY           SKY/WX    TMP DP  RH WIND       PRES   REMARKS
GOODLAND       MOCLDY    46  38  73 NE6       30.03F
HAYS           PTCLDY    45  34  65 S3        30.02S
HILL CITY      CLOUDY    49  43  80 N20       30.03R
RUSSELL        MOCLDY    44  40  85 S10       30.01S
$$

KSZ061>065-074>080-084>089-031000-
SOUTHWEST KANSAS

CITY           SKY/WX    TMP DP  RH WIND       PRES   REMARKS
DODGE CITY     PTCLDY    47  35  63 SW10      30.05S
ELKHART          N/A     47  37  68 SW6         N/A
GARDEN CITY    CLOUDY    43  35  73 W8        30.03F
GREAT BEND     PTCLDY    43  34  70 S7        30.04S
LIBERAL        MOCLDY    45  36  70 SW8       30.06F
$$

KSZ066>073-081>083-090>101-031000-
SOUTHEAST KANSAS

CITY           SKY/WX    TMP DP  RH WIND       PRES   REMARKS
CHANUTE        FOG       40  38  93 CALM      30.07S VSB 1
COFFEYVILLE    CLEAR     42  40  92 CALM      30.08S
HUTCHINSON     CLEAR     41  38  89 CALM      30.05F
MEDICINE LODGE   N/A     40  38  93 E3        30.05S
NEWTON         CLEAR     45  36  70 SW6       30.08S
PARSONS        PTCLDY    40  39  97 CALM      30.08S FOG
WICHITA INTL   PTCLDY    43  39  86 S3        30.06S
WICHITA JABRA  PTCLDY    47  41  80 SW5       30.06S
WICHITA MCCONL PTCLDY    46  40  81 SW3       30.06S
WINFIELD       CLEAR     43  40  89 CALM      30.19F
$$

KSZ007>012-019>026-033>040-048>060-102>105-031000-
NORTHEAST KANSAS

CITY           SKY/WX    TMP DP  RH WIND       PRES   REMARKS
CONCORDIA      MOCLDY    42  37  82 CALM      30.05S
EMPORIA        PTCLDY    43  42  97 S6        30.06S
LAWRENCE       PTCLDY    38  38 100 NW3       30.08R
MANHATTAN      PTCLDY    43  40  89 CALM      30.07R
OLATHE IND     CLEAR     45  42  89 W3        30.07S
OLATHE EXE     CLEAR     46  42  86 W5        30.06S
SALINA         CLEAR     45  40  82 CALM      30.05F
TOPEKA BILLARD CLEAR     42  40  92 CALM      30.07S
TOPEKA FORBES  CLEAR     42  39  89 CALM      30.06S
$$




USA.gov is the U.S. government's official web portal to all federal, state and local government web resources and services.